| time (UTC) | temp F | wind direction | speed MPH | gust MPH | rain 1hr in | rain 24hr in | rain mn in | humidity % | barometer mb |
| 20260507135657 | 84 | 0 | 2.0 | 0.0 | 0.00 | 0.00 | 0.00 | 89 | 1010.0 |
| 20260507135351 | 84 | 0 | 2.0 | 0.0 | 0.00 | 0.00 | 0.00 | 89 | 1010.0 |
| 20260507135044 | 84 | 0 | 2.0 | 0.0 | 0.00 | 0.00 | 0.00 | 89 | 1010.0 |
| 20260507134738 | 84 | 0 | 2.0 | 0.0 | 0.00 | 0.00 | 0.00 | 89 | 1010.0 |
| 20260507134431 | 84 | 0 | 2.0 | 0.0 | 0.00 | 0.00 | 0.00 | 89 | 1010.0 |
| 20260507134125 | 84 | 0 | 2.0 | 0.0 | 0.00 | 0.00 | 0.00 | 89 | 1010.0 |
| 20260507133757 | 84 | 0 | 2.0 | 0.0 | 0.00 | 0.00 | 0.00 | 89 | 1010.0 |
| 20260507133450 | 84 | 0 | 2.0 | 0.0 | 0.00 | 0.00 | 0.00 | 89 | 1010.0 |
| 20260507133143 | 84 | 0 | 2.0 | 0.0 | 0.00 | 0.00 | 0.00 | 89 | 1010.0 |
| 20260507132836 | 84 | 0 | 2.0 | 0.0 | 0.00 | 0.00 | 0.00 | 89 | 1010.0 |
| 20260507132530 | 84 | 0 | 2.0 | 0.0 | 0.00 | 0.00 | 0.00 | 89 | 1010.0 |
| 20260507132223 | 84 | 0 | 2.0 | 0.0 | 0.00 | 0.00 | 0.00 | 89 | 1010.0 |
| 20260507131912 | 84 | 0 | 2.0 | 0.0 | 0.00 | 0.00 | 0.00 | 89 | 1010.0 |
| 20260507131610 | 84 | 0 | 2.0 | 0.0 | 0.00 | 0.00 | 0.00 | 89 | 1010.0 |
| 20260507131304 | 84 | 0 | 2.0 | 0.0 | 0.00 | 0.00 | 0.00 | 89 | 1010.0 |
| 20260507131003 | 84 | 0 | 2.0 | 0.0 | 0.00 | 0.00 | 0.00 | 89 | 1010.0 |
| 20260507130656 | 81 | 245 | 5.0 | 6.0 | 0.00 | 0.00 | 0.00 | 92 | 1010.0 |
| 20260507130040 | 82 | 245 | 5.0 | 6.0 | 0.00 | 0.00 | 0.00 | 92 | 1010.0 |
| 20260507125739 | 82 | 245 | 5.0 | 6.0 | 0.00 | 0.00 | 0.00 | 92 | 1010.0 |
| 20260507125432 | 82 | 245 | 5.0 | 6.0 | 0.00 | 0.00 | 0.00 | 92 | 1010.0 |
| 20260507125125 | 83 | 245 | 5.0 | 6.0 | 0.00 | 0.00 | 0.00 | 92 | 1010.0 |
| 20260507124824 | 82 | 245 | 5.0 | 6.0 | 0.00 | 0.00 | 0.00 | 92 | 1010.0 |
| 20260507124215 | 83 | 245 | 5.0 | 6.0 | 0.00 | 0.00 | 0.00 | 92 | 1010.0 |
| 20260507123909 | 74 | 234 | 5.0 | 9.0 | 0.00 | 0.00 | 0.00 | 10 | 1010.0 |
| 20260507123607 | 74 | 234 | 5.0 | 9.0 | 0.00 | 0.00 | 0.00 | 10 | 1010.0 |
| 20260507123306 | 83 | 245 | 5.0 | 6.0 | 0.00 | 0.00 | 0.00 | 92 | 1010.0 |
| 20260507122959 | 74 | 234 | 5.0 | 9.0 | 0.00 | 0.00 | 0.00 | 10 | 1010.0 |
| 20260507122653 | 75 | 234 | 5.0 | 9.0 | 0.00 | 0.00 | 0.00 | 10 | 1010.0 |
| 20260507122351 | 75 | 234 | 5.0 | 9.0 | 0.00 | 0.00 | 0.00 | 10 | 1010.0 |
| 20260507122045 | 75 | 234 | 5.0 | 9.0 | 0.00 | 0.00 | 0.00 | 10 | 1010.0 |
| 20260507121444 | 76 | 234 | 5.0 | 9.0 | 0.00 | 0.00 | 0.00 | 10 | 1010.0 |
| 20260507120923 | 77 | 234 | 5.0 | 9.0 | 0.00 | 0.00 | 0.00 | 10 | 1010.0 |
| 20260507120615 | 78 | 200 | 3.0 | 0.0 | 0.00 | 0.00 | 0.00 | 10 | 1010.0 |
| 20260507120303 | 78 | 200 | 3.0 | 0.0 | 0.00 | 0.00 | 0.00 | 10 | 1010.0 |
| 20260507115951 | 78 | 200 | 3.0 | 0.0 | 0.00 | 0.00 | 0.00 | 10 | 1010.0 |
| 20260507115645 | 78 | 200 | 3.0 | 0.0 | 0.00 | 0.00 | 0.00 | 10 | 1010.0 |
| 20260507115338 | 78 | 200 | 3.0 | 0.0 | 0.00 | 0.00 | 0.00 | 10 | 1010.0 |
| 20260507115032 | 78 | 200 | 3.0 | 0.0 | 0.00 | 0.00 | 0.00 | 10 | 1010.0 |
| 20260507114731 | 78 | 200 | 3.0 | 0.0 | 0.00 | 0.00 | 0.00 | 10 | 1010.0 |
| 20260507114429 | 78 | 200 | 3.0 | 0.0 | 0.00 | 0.00 | 0.00 | 10 | 1010.0 |
| 20260507114116 | 78 | 200 | 3.0 | 0.0 | 0.00 | 0.00 | 0.00 | 10 | 1010.0 |
| 20260507113809 | 78 | 200 | 3.0 | 0.0 | 0.00 | 0.00 | 0.00 | 10 | 1009.0 |
| 20260507113501 | 78 | 200 | 3.0 | 0.0 | 0.00 | 0.00 | 0.00 | 10 | 1009.0 |
| 20260507113200 | 78 | 200 | 3.0 | 0.0 | 0.00 | 0.00 | 0.00 | 10 | 1009.0 |
| 20260507112853 | 78 | 200 | 3.0 | 0.0 | 0.00 | 0.00 | 0.00 | 10 | 1009.0 |
| 20260507112542 | 78 | 200 | 3.0 | 0.0 | 0.00 | 0.00 | 0.00 | 10 | 1009.0 |
| 20260507112235 | 78 | 200 | 3.0 | 0.0 | 0.00 | 0.00 | 0.00 | 10 | 1009.0 |
| 20260507111929 | 78 | 200 | 3.0 | 0.0 | 0.00 | 0.00 | 0.00 | 10 | 1009.0 |
| 20260507111621 | 78 | 200 | 3.0 | 0.0 | 0.00 | 0.00 | 0.00 | 10 | 1009.0 |
| 20260507111320 | 78 | 200 | 3.0 | 0.0 | 0.00 | 0.00 | 0.00 | 10 | 1009.0 |
| 20260507111014 | 78 | 200 | 3.0 | 0.0 | 0.00 | 0.00 | 0.00 | 10 | 1009.0 |
| 20260507110331 | 78 | 210 | 2.0 | 0.0 | 0.00 | 0.00 | 0.00 | 10 | 1009.0 |
| 20260507110025 | 78 | 210 | 2.0 | 0.0 | 0.00 | 0.00 | 0.00 | 10 | 1009.0 |
| 20260507105718 | 78 | 210 | 2.0 | 0.0 | 0.00 | 0.00 | 0.00 | 10 | 1009.0 |
| 20260507105411 | 78 | 210 | 2.0 | 0.0 | 0.00 | 0.00 | 0.00 | 10 | 1009.0 |
| 20260507105110 | 78 | 210 | 2.0 | 0.0 | 0.00 | 0.00 | 0.00 | 10 | 1009.0 |
| 20260507104808 | 78 | 210 | 2.0 | 0.0 | 0.00 | 0.00 | 0.00 | 10 | 1009.0 |
| 20260507104501 | 78 | 210 | 2.0 | 0.0 | 0.00 | 0.00 | 0.00 | 10 | 1009.0 |
| 20260507104150 | 78 | 210 | 2.0 | 0.0 | 0.00 | 0.00 | 0.00 | 10 | 1009.0 |
| 20260507103838 | 78 | 210 | 2.0 | 0.0 | 0.00 | 0.00 | 0.00 | 10 | 1009.0 |
| 20260507103532 | 78 | 210 | 2.0 | 0.0 | 0.00 | 0.00 | 0.00 | 10 | 1009.0 |
| 20260507103225 | 78 | 190 | 2.0 | 0.0 | 0.00 | 0.00 | 0.00 | 10 | 1009.0 |
| 20260507102924 | 78 | 190 | 2.0 | 0.0 | 0.00 | 0.00 | 0.00 | 10 | 1009.0 |
| 20260507102623 | 78 | 190 | 2.0 | 0.0 | 0.00 | 0.00 | 0.00 | 10 | 1009.0 |
| 20260507102316 | 78 | 190 | 2.0 | 0.0 | 0.00 | 0.00 | 0.00 | 10 | 1009.0 |
| 20260507102015 | 78 | 190 | 2.0 | 0.0 | 0.00 | 0.00 | 0.00 | 10 | 1009.0 |
| 20260507101713 | 78 | 190 | 2.0 | 0.0 | 0.00 | 0.00 | 0.00 | 10 | 1009.0 |
| 20260507101406 | 76 | 150 | 2.0 | 0.0 | 0.00 | 0.00 | 0.00 | 10 | 1009.0 |
| 20260507101100 | 78 | 190 | 2.0 | 0.0 | 0.00 | 0.00 | 0.00 | 10 | 1009.0 |
| 20260507100758 | 78 | 190 | 2.0 | 0.0 | 0.00 | 0.00 | 0.00 | 10 | 1009.0 |
| 20260507100457 | 76 | 150 | 2.0 | 0.0 | 0.00 | 0.00 | 0.00 | 10 | 1009.0 |
| 20260507100150 | 76 | 150 | 2.0 | 0.0 | 0.00 | 0.00 | 0.00 | 10 | 1009.0 |
| 20260507095844 | 76 | 150 | 2.0 | 0.0 | 0.00 | 0.00 | 0.00 | 10 | 1009.0 |
| 20260507095537 | 76 | 150 | 2.0 | 0.0 | 0.00 | 0.00 | 0.00 | 10 | 1009.0 |
| 20260507095226 | 76 | 150 | 2.0 | 0.0 | 0.00 | 0.00 | 0.00 | 10 | 1009.0 |
| 20260507094919 | 76 | 150 | 2.0 | 0.0 | 0.00 | 0.00 | 0.00 | 10 | 1009.0 |
| 20260507094612 | 76 | 150 | 2.0 | 0.0 | 0.00 | 0.00 | 0.00 | 10 | 1009.0 |
| 20260507094255 | 76 | 150 | 2.0 | 0.0 | 0.00 | 0.00 | 0.00 | 10 | 1009.0 |
| 20260507093943 | 76 | 150 | 2.0 | 0.0 | 0.00 | 0.00 | 0.00 | 10 | 1009.0 |
| 20260507093642 | 76 | 150 | 2.0 | 0.0 | 0.00 | 0.00 | 0.00 | 10 | 1009.0 |
| 20260507093332 | 76 | 150 | 2.0 | 0.0 | 0.00 | 0.00 | 0.00 | 10 | 1009.0 |
| 20260507093031 | 76 | 150 | 2.0 | 0.0 | 0.00 | 0.00 | 0.00 | 10 | 1009.0 |
| 20260507092724 | 76 | 150 | 2.0 | 0.0 | 0.00 | 0.00 | 0.00 | 10 | 1009.0 |
| 20260507092422 | 76 | 150 | 2.0 | 0.0 | 0.00 | 0.00 | 0.00 | 10 | 1009.0 |
| 20260507092109 | 76 | 150 | 2.0 | 0.0 | 0.00 | 0.00 | 0.00 | 10 | 1009.0 |
| 20260507091803 | 76 | 150 | 2.0 | 0.0 | 0.00 | 0.00 | 0.00 | 10 | 1009.0 |
| 20260507091456 | 76 | 150 | 2.0 | 0.0 | 0.00 | 0.00 | 0.00 | 10 | 1009.0 |
| 20260507091150 | 76 | 150 | 2.0 | 0.0 | 0.00 | 0.00 | 0.00 | 10 | 1009.0 |
| 20260507090843 | 78 | 0 | 2.0 | 0.0 | 0.00 | 0.00 | 0.00 | 10 | 1009.0 |
| 20260507090532 | 78 | 0 | 2.0 | 0.0 | 0.00 | 0.00 | 0.00 | 10 | 1009.0 |
| 20260507090225 | 78 | 0 | 2.0 | 0.0 | 0.00 | 0.00 | 0.00 | 10 | 1009.0 |
| 20260507085919 | 78 | 0 | 2.0 | 0.0 | 0.00 | 0.00 | 0.00 | 10 | 1009.0 |
| 20260507085618 | 78 | 0 | 2.0 | 0.0 | 0.00 | 0.00 | 0.00 | 10 | 1009.0 |
| 20260507085311 | 78 | 0 | 2.0 | 0.0 | 0.00 | 0.00 | 0.00 | 10 | 1009.0 |
| 20260507085003 | 78 | 0 | 2.0 | 0.0 | 0.00 | 0.00 | 0.00 | 10 | 1009.0 |
| 20260507084656 | 78 | 0 | 2.0 | 0.0 | 0.00 | 0.00 | 0.00 | 10 | 1009.0 |
| 20260507084355 | 78 | 0 | 2.0 | 0.0 | 0.00 | 0.00 | 0.00 | 10 | 1009.0 |
| 20260507084043 | 78 | 0 | 2.0 | 0.0 | 0.00 | 0.00 | 0.00 | 10 | 1009.0 |
| 20260507083741 | 78 | 0 | 2.0 | 0.0 | 0.00 | 0.00 | 0.00 | 10 | 1009.0 |
| 20260507083439 | 78 | 0 | 2.0 | 0.0 | 0.00 | 0.00 | 0.00 | 10 | 1009.0 |
| 20260507083133 | 78 | 0 | 2.0 | 0.0 | 0.00 | 0.00 | 0.00 | 10 | 1009.0 |
| 20260507082826 | 78 | 0 | 2.0 | 0.0 | 0.00 | 0.00 | 0.00 | 10 | 1009.0 |
| 20260507082519 | 78 | 0 | 2.0 | 0.0 | 0.00 | 0.00 | 0.00 | 10 | 1009.0 |
| 20260507082218 | 78 | 0 | 2.0 | 0.0 | 0.00 | 0.00 | 0.00 | 10 | 1009.0 |
| 20260507081905 | 78 | 0 | 2.0 | 0.0 | 0.00 | 0.00 | 0.00 | 10 | 1009.0 |
| 20260507081558 | 78 | 0 | 2.0 | 0.0 | 0.00 | 0.00 | 0.00 | 10 | 1009.0 |
| 20260507081252 | 78 | 0 | 2.0 | 0.0 | 0.00 | 0.00 | 0.00 | 10 | 1009.0 |
| 20260507080940 | 78 | 0 | 2.0 | 0.0 | 0.00 | 0.00 | 0.00 | 10 | 1009.0 |
| 20260507080634 | 78 | 0 | 2.0 | 0.0 | 0.00 | 0.00 | 0.00 | 10 | 1009.0 |
| 20260507080333 | 78 | 0 | 2.0 | 0.0 | 0.00 | 0.00 | 0.00 | 10 | 1009.0 |
| 20260507080031 | 78 | 0 | 2.0 | 0.0 | 0.00 | 0.00 | 0.00 | 10 | 1009.0 |
| 20260507075720 | 78 | 0 | 2.0 | 0.0 | 0.00 | 0.00 | 0.00 | 10 | 1009.0 |
| 20260507075413 | 78 | 0 | 2.0 | 0.0 | 0.00 | 0.00 | 0.00 | 10 | 1009.0 |
| 20260507075107 | 78 | 0 | 2.0 | 0.0 | 0.00 | 0.00 | 0.00 | 10 | 1009.0 |
| 20260507074801 | 78 | 0 | 2.0 | 0.0 | 0.00 | 0.00 | 0.00 | 10 | 1009.0 |
| 20260507074454 | 78 | 0 | 2.0 | 0.0 | 0.00 | 0.00 | 0.00 | 10 | 1009.0 |
| 20260507074153 | 78 | 0 | 2.0 | 0.0 | 0.00 | 0.00 | 0.00 | 10 | 1009.0 |
| 20260507073841 | 78 | 0 | 2.0 | 0.0 | 0.00 | 0.00 | 0.00 | 10 | 1009.0 |
| 20260507073533 | 78 | 0 | 2.0 | 0.0 | 0.00 | 0.00 | 0.00 | 10 | 1009.0 |
| 20260507073227 | 78 | 0 | 2.0 | 0.0 | 0.00 | 0.00 | 0.00 | 10 | 1009.0 |
| 20260507072925 | 78 | 0 | 2.0 | 0.0 | 0.00 | 0.00 | 0.00 | 10 | 1009.0 |
| 20260507072618 | 78 | 0 | 2.0 | 0.0 | 0.00 | 0.00 | 0.00 | 10 | 1009.0 |
| 20260507072312 | 78 | 0 | 2.0 | 0.0 | 0.00 | 0.00 | 0.00 | 10 | 1009.0 |
| 20260507072006 | 78 | 0 | 2.0 | 0.0 | 0.00 | 0.00 | 0.00 | 10 | 1009.0 |
| 20260507071659 | 78 | 0 | 2.0 | 0.0 | 0.00 | 0.00 | 0.00 | 10 | 1009.0 |
| 20260507071358 | 78 | 0 | 2.0 | 0.0 | 0.00 | 0.00 | 0.00 | 10 | 1009.0 |
| 20260507071051 | 78 | 0 | 2.0 | 0.0 | 0.00 | 0.00 | 0.00 | 10 | 1009.0 |
| 20260507070750 | 78 | 0 | 2.0 | 0.0 | 0.00 | 0.00 | 0.00 | 10 | 1009.0 |
| 20260507070443 | 78 | 0 | 2.0 | 0.0 | 0.00 | 0.00 | 0.00 | 10 | 1009.0 |
| 20260507070137 | 78 | 0 | 2.0 | 0.0 | 0.00 | 0.00 | 0.00 | 10 | 1009.0 |
| 20260507065830 | 78 | 0 | 2.0 | 0.0 | 0.00 | 0.00 | 0.00 | 10 | 1009.0 |
| 20260507065524 | 78 | 0 | 2.0 | 0.0 | 0.00 | 0.00 | 0.00 | 10 | 1009.0 |
| 20260507065222 | 78 | 0 | 2.0 | 0.0 | 0.00 | 0.00 | 0.00 | 10 | 1009.0 |
| 20260507064915 | 78 | 0 | 2.0 | 0.0 | 0.00 | 0.00 | 0.00 | 10 | 1009.0 |
| 20260507064604 | 78 | 0 | 2.0 | 0.0 | 0.00 | 0.00 | 0.00 | 10 | 1009.0 |
| 20260507064302 | 78 | 0 | 2.0 | 0.0 | 0.00 | 0.00 | 0.00 | 10 | 1009.0 |
| 20260507063951 | 78 | 0 | 2.0 | 0.0 | 0.00 | 0.00 | 0.00 | 10 | 1009.0 |
| 20260507063644 | 78 | 0 | 2.0 | 0.0 | 0.00 | 0.00 | 0.00 | 10 | 1009.0 |
| 20260507063338 | 78 | 0 | 2.0 | 0.0 | 0.00 | 0.00 | 0.00 | 10 | 1009.0 |
| 20260507063031 | 78 | 0 | 2.0 | 0.0 | 0.00 | 0.00 | 0.00 | 10 | 1009.0 |
| 20260507062725 | 78 | 0 | 2.0 | 0.0 | 0.00 | 0.00 | 0.00 | 10 | 1010.0 |
| 20260507062423 | 78 | 0 | 2.0 | 0.0 | 0.00 | 0.00 | 0.00 | 10 | 1010.0 |
| 20260507062117 | 78 | 0 | 2.0 | 0.0 | 0.00 | 0.00 | 0.00 | 10 | 1010.0 |
| 20260507061810 | 78 | 0 | 2.0 | 0.0 | 0.00 | 0.00 | 0.00 | 10 | 1010.0 |
| 20260507061504 | 78 | 0 | 2.0 | 0.0 | 0.00 | 0.00 | 0.00 | 10 | 1010.0 |
| 20260507061157 | 78 | 0 | 2.0 | 0.0 | 0.00 | 0.00 | 0.00 | 10 | 1010.0 |
| 20260507060853 | 78 | 0 | 2.0 | 0.0 | 0.00 | 0.00 | 0.00 | 10 | 1010.0 |
| 20260507060232 | 78 | 0 | 2.0 | 0.0 | 0.00 | 0.00 | 0.00 | 10 | 1010.0 |
| 20260507055925 | 78 | 0 | 2.0 | 0.0 | 0.00 | 0.00 | 0.00 | 10 | 1010.0 |
| 20260507055624 | 78 | 0 | 2.0 | 0.0 | 0.00 | 0.00 | 0.00 | 10 | 1010.0 |
| 20260507055317 | 78 | 0 | 2.0 | 0.0 | 0.00 | 0.00 | 0.00 | 10 | 1010.0 |
| 20260507055011 | 78 | 0 | 2.0 | 0.0 | 0.00 | 0.00 | 0.00 | 10 | 1010.0 |
| 20260507054659 | 78 | 0 | 2.0 | 0.0 | 0.00 | 0.00 | 0.00 | 10 | 1010.0 |
| 20260507054353 | 78 | 0 | 2.0 | 0.0 | 0.00 | 0.00 | 0.00 | 10 | 1010.0 |
| 20260507054039 | 78 | 0 | 2.0 | 0.0 | 0.00 | 0.00 | 0.00 | 10 | 1010.0 |
| 20260507053733 | 78 | 0 | 2.0 | 0.0 | 0.00 | 0.00 | 0.00 | 10 | 1010.0 |
| 20260507053052 | 78 | 0 | 2.0 | 0.0 | 0.00 | 0.00 | 0.00 | 10 | 1010.0 |
| 20260507052751 | 78 | 0 | 2.0 | 0.0 | 0.00 | 0.00 | 0.00 | 10 | 1010.0 |
| 20260507052444 | 78 | 0 | 2.0 | 0.0 | 0.00 | 0.00 | 0.00 | 10 | 1010.0 |
| 20260507052143 | 78 | 0 | 2.0 | 0.0 | 0.00 | 0.00 | 0.00 | 10 | 1010.0 |
| 20260507051836 | 78 | 0 | 2.0 | 0.0 | 0.00 | 0.00 | 0.00 | 10 | 1010.0 |
| 20260507051530 | 72 | 252 | 6.0 | 16.0 | 0.00 | 0.00 | 0.00 | 94 | 1010.0 |
| 20260507050841 | 73 | 252 | 6.0 | 16.0 | 0.00 | 0.00 | 0.00 | 94 | 1010.0 |
| 20260507050531 | 72 | 252 | 6.0 | 16.0 | 0.00 | 0.00 | 0.00 | 94 | 1010.0 |
| 20260507050222 | 73 | 252 | 6.0 | 16.0 | 0.00 | 0.00 | 0.00 | 94 | 1010.0 |
| 20260507045915 | 73 | 252 | 6.0 | 16.0 | 0.00 | 0.00 | 0.00 | 94 | 1010.0 |
| 20260507044929 | 74 | 252 | 6.0 | 16.0 | 0.00 | 0.00 | 0.00 | 94 | 1010.0 |
| 20260507044628 | 73 | 252 | 6.0 | 16.0 | 0.00 | 0.00 | 0.00 | 94 | 1010.0 |
| 20260507044319 | 74 | 252 | 6.0 | 16.0 | 0.00 | 0.00 | 0.00 | 94 | 1010.0 |
| 20260507044018 | 75 | 252 | 6.0 | 16.0 | 0.00 | 0.00 | 0.00 | 94 | 1010.0 |
| 20260507043711 | 75 | 252 | 6.0 | 16.0 | 0.00 | 0.00 | 0.00 | 94 | 1010.0 |
| 20260507043409 | 76 | 252 | 7.0 | 16.0 | 0.00 | 0.00 | 0.00 | 94 | 1010.0 |
| 20260507043103 | 77 | 252 | 7.0 | 16.0 | 0.00 | 0.00 | 0.00 | 94 | 1010.0 |
| 20260507042756 | 76 | 252 | 7.0 | 16.0 | 0.00 | 0.00 | 0.00 | 94 | 1010.0 |
| 20260507042445 | 77 | 252 | 7.0 | 16.0 | 0.00 | 0.00 | 0.00 | 94 | 1010.0 |
| 20260507042136 | 78 | 252 | 7.0 | 16.0 | 0.00 | 0.00 | 0.00 | 94 | 1010.0 |
| 20260507041833 | 78 | 252 | 7.0 | 16.0 | 0.00 | 0.00 | 0.00 | 94 | 1010.0 |
| 20260507041530 | 78 | 252 | 7.0 | 16.0 | 0.00 | 0.00 | 0.00 | 94 | 1010.0 |
| 20260507041219 | 78 | 252 | 7.0 | 16.0 | 0.00 | 0.00 | 0.00 | 94 | 1010.0 |
| 20260507040918 | 79 | 252 | 7.0 | 16.0 | 0.00 | 0.00 | 0.00 | 94 | 1010.0 |
| 20260507040616 | 80 | 230 | 2.0 | 0.0 | 0.00 | 0.00 | 0.00 | 94 | 1010.0 |
| 20260507040314 | 80 | 230 | 2.0 | 0.0 | 0.00 | 0.00 | 0.00 | 94 | 1010.0 |
| 20260507040011 | 80 | 230 | 2.0 | 0.0 | 0.00 | 0.00 | 0.00 | 94 | 1010.0 |
| 20260507035709 | 80 | 230 | 2.0 | 0.0 | 0.00 | 0.00 | 0.00 | 94 | 1010.0 |
| 20260507035403 | 80 | 230 | 2.0 | 0.0 | 0.00 | 0.00 | 0.00 | 94 | 1010.0 |
| 20260507035051 | 80 | 230 | 2.0 | 0.0 | 0.00 | 0.00 | 0.00 | 94 | 1010.0 |
| 20260507034745 | 80 | 230 | 2.0 | 0.0 | 0.00 | 0.00 | 0.00 | 94 | 1010.0 |
| 20260507034439 | 80 | 230 | 2.0 | 0.0 | 0.00 | 0.00 | 0.00 | 94 | 1010.0 |
| 20260507033826 | 80 | 230 | 2.0 | 0.0 | 0.00 | 0.00 | 0.00 | 94 | 1010.0 |
| 20260507033519 | 80 | 230 | 2.0 | 0.0 | 0.00 | 0.00 | 0.00 | 94 | 1010.0 |
| 20260507033217 | 80 | 230 | 2.0 | 0.0 | 0.00 | 0.00 | 0.00 | 94 | 1010.0 |
| 20260507032910 | 80 | 230 | 2.0 | 0.0 | 0.00 | 0.00 | 0.00 | 94 | 1010.0 |
| 20260507032603 | 80 | 230 | 2.0 | 0.0 | 0.00 | 0.00 | 0.00 | 94 | 1010.0 |
| 20260507032301 | 80 | 230 | 2.0 | 0.0 | 0.00 | 0.00 | 0.00 | 94 | 1010.0 |
| 20260507031959 | 80 | 230 | 2.0 | 0.0 | 0.00 | 0.00 | 0.00 | 94 | 1010.0 |
| 20260507031658 | 80 | 230 | 2.0 | 0.0 | 0.00 | 0.00 | 0.00 | 94 | 1010.0 |
| 20260507031351 | 80 | 230 | 2.0 | 0.0 | 0.00 | 0.00 | 0.00 | 94 | 1010.0 |
| 20260507031045 | 80 | 230 | 2.0 | 0.0 | 0.00 | 0.00 | 0.00 | 94 | 1010.0 |
| 20260507030743 | 80 | 230 | 2.0 | 0.0 | 0.00 | 0.00 | 0.00 | 94 | 1010.0 |
| 20260507030442 | 80 | 0 | 1.0 | 0.0 | 0.00 | 0.00 | 0.00 | 94 | 1010.0 |
| 20260507030141 | 80 | 0 | 1.0 | 0.0 | 0.00 | 0.00 | 0.00 | 94 | 1010.0 |
| 20260507025838 | 80 | 0 | 1.0 | 0.0 | 0.00 | 0.00 | 0.00 | 94 | 1010.0 |
| 20260507025535 | 80 | 0 | 1.0 | 0.0 | 0.00 | 0.00 | 0.00 | 94 | 1010.0 |
| 20260507025234 | 80 | 0 | 1.0 | 0.0 | 0.00 | 0.00 | 0.00 | 94 | 1010.0 |
| 20260507024927 | 80 | 0 | 1.0 | 0.0 | 0.00 | 0.00 | 0.00 | 94 | 1010.0 |
| 20260507024626 | 80 | 0 | 1.0 | 0.0 | 0.00 | 0.00 | 0.00 | 94 | 1010.0 |
| 20260507024325 | 80 | 0 | 1.0 | 0.0 | 0.00 | 0.00 | 0.00 | 94 | 1010.0 |
| 20260507024023 | 80 | 0 | 1.0 | 0.0 | 0.00 | 0.00 | 0.00 | 94 | 1010.0 |
| 20260507023717 | 80 | 0 | 1.0 | 0.0 | 0.00 | 0.00 | 0.00 | 94 | 1010.0 |
| 20260507023414 | 80 | 0 | 1.0 | 0.0 | 0.00 | 0.00 | 0.00 | 94 | 1010.0 |
| 20260507023112 | 80 | 0 | 1.0 | 0.0 | 0.00 | 0.00 | 0.00 | 94 | 1010.0 |